This is the latest recevied weather packets stored in our database for station/object KY0TEQ-13. If no packets are shown the sender has not sent any weather packets the latest 10 day(s).
| Time | Temp. | Humidity | Pressure | Rain* | Wind** | Luminosity | Snow |
|---|---|---|---|---|---|---|---|
| 1788156196 | 15° C | 62% | 1310 hPa | 0 mm | - | 0 W/m² | - |
| 1788155896 | 15° C | 62% | 1310.2 hPa | 0 mm | - | 0 W/m² | - |
| 1788155591 | 15° C | 62% | 1310.6 hPa | 0 mm | - | 0 W/m² | - |
| 1788155287 | 14.44° C | 65% | 1310.8 hPa | 0 mm | - | 0 W/m² | - |
| 1788154981 | 14.44° C | 66% | 1311.1 hPa | 0 mm | - | 0 W/m² | - |
| 1788154680 | 15.56° C | 63% | 1311.1 hPa | 0 mm | - | 0 W/m² | - |
| 1788154378 | 15° C | 65% | 1311 hPa | 0 mm | - | 0 W/m² | - |
| 1788154073 | 15° C | 65% | 1311.1 hPa | 0 mm | - | 0 W/m² | - |
| 1788153772 | 15° C | 65% | 1311 hPa | 0 mm | - | 0 W/m² | - |
| 1788153470 | 15° C | 66% | 1311 hPa | 0 mm | - | 0 W/m² | - |
| 1788153170 | 15° C | 66% | 1311.2 hPa | 0 mm | - | 0 W/m² | - |
| 1788152864 | 14.44° C | 67% | 1311.2 hPa | 0 mm | - | 0 W/m² | - |
| 1788152563 | 14.44° C | 67% | 1311.3 hPa | 0 mm | - | 0 W/m² | - |
| 1788152259 | 15° C | 66% | 1311.2 hPa | 0 mm | - | 0 W/m² | - |
| 1788151959 | 14.44° C | 67% | 1311.2 hPa | 0 mm | - | 0 W/m² | - |
| 1788151653 | 15° C | 66% | 1311.4 hPa | 0 mm | - | 0 W/m² | - |
| 1788151348 | 15° C | 65% | 1311.6 hPa | 0 mm | - | 0 W/m² | - |
| 1788151044 | 14.44° C | 68% | 1311.6 hPa | 0 mm | - | 0 W/m² | - |
| 1788150739 | 14.44° C | 68% | 1311.3 hPa | 0 mm | - | 0 W/m² | - |
| 1788150439 | 14.44° C | 69% | 1311.2 hPa | 0 mm | - | 0 W/m² | - |
| 1788150134 | 15° C | 67% | 1311.3 hPa | 0 mm | - | 0 W/m² | - |
| 1788149829 | 15° C | 66% | 1311.2 hPa | 0 mm | - | 0 W/m² | - |
| 1788149528 | 15° C | 66% | 1311.2 hPa | 0 mm | - | 0 W/m² | - |
| 1788149223 | 15° C | 67% | 1311.1 hPa | 0 mm | - | 0 W/m² | - |
| 1788148923 | 15.56° C | 65% | 1311 hPa | 0 mm | - | 0 W/m² | - |
* Rain latest hour (hover to see other rain measurements)
** Current wind speed in m/s (hover to see current wind gust speed)